Regional Weather Roundup
Issued by NWS Wakefield, VA

Home | Current Version | Previous Version | Text Only | Print | Product List | Glossary Off
Versions: 1 2 3 4 5 6 7 8 9 10 11 12 13 14 15 16 17 18 19 20 21 22 23 24 25 26 27 28 29 30 31 32 33 34 35 36 37 38 39 40 41 42 43 44 45 46 47 48 49 50

000
ASUS41 KAKQ 301210
RWRAKQ

REGIONAL WEATHER ROUNDUP
NATIONAL WEATHER SERVICE WAKEFIELD VA
800 AM EDT SAT AUG 30 2014

Note: "fair" indicates few or no clouds below 12,000 feet with no
significant weather and/or obstructions to visibility. * = Denotes
station may not report precipitation (e.g., rain,snow,etc.),
thunder or fog.

VAZ042-051-052>054-056-301300-
NORTHERN VIRGINIA

CITY           SKY/WX    TMP DP  RH WIND       PRES   REMARKS
WASH NATIONAL  CLOUDY    73  61  65 S7        30.24S
DULLES         CLOUDY    68  63  84 S5        30.23S
FORT BELVOIR   CLOUDY    67  65  91 CALM      30.24R
QUANTICO       CLOUDY    72  64  76 S8        30.24R
FREDERICKSBRG* CLOUDY    69  65  86 CALM      30.22S
STAFFORD*      PTSUNNY   67  67 100 CALM      30.27S
WARRENTON      CLOUDY    69  67  94 CALM      30.23R
CULPEPER*      CLOUDY   N/A N/A N/A CALM      30.24R
MANASSAS*      CLOUDY    70  66  88 CALM      30.23S
LEESBURG*      CLOUDY    70  66  88 S5        30.24S
WINCHESTER     PTSUNNY   66  61  82 CALM      30.21R
$$

VAZ048-049-060>072-079>083-301300-
CENTRAL AND SOUTH CENTRAL VIRGINIA...AND NORTH CENTRAL NORTH CAROLINA

CITY           SKY/WX    TMP DP  RH WIND       PRES   REMARKS
RICHMOND       PTSUNNY   72  64  76 SE5       30.23R
CHESTERFIELD*  CLOUDY    72  57  60 SE5       30.25R
PETERSBURG*    CLOUDY    70  65  83 CALM      30.24R
HANOVER        CLOUDY    70  65  84 CALM      30.25R
TAPPAHANNOCK*  PTSUNNY   71  63  75 CALM      30.24R
CHARLOTTSVILLE CLOUDY    68  63  84 CALM      30.24R
ORANGE*        CLOUDY    68  63  83 CALM      30.25R
LOUISA*        CLOUDY    70  64  83 CALM      30.23R
FARMVILLE*     CLOUDY    72  70  94 CALM      30.22S
SOUTH HILL*      N/A     72  72 100 CALM      30.29R
ROANOKE RAPIDS CLOUDY    68  66  94 CALM      30.23R
RALEIGH        CLOUDY    73  67  81 SE3       30.23R
$$

VAZ088>098-301300-
SOUTHEAST VIRGINIA

CITY           SKY/WX    TMP DP  RH WIND       PRES   REMARKS
NORFOLK        CLOUDY    75  65  70 E3        30.22S
VIRGINIA BEACH CLOUDY    75  65  70 E7        30.22R
NORFOLK NAVAL  PTSUNNY   75  65  70 E5        30.24R
WEST POINT*    CLOUDY    73  65  76 CALM      30.24S
NEWPORT NEWS   CLOUDY    78  66  66 CALM      30.23R
LANGLEY AFB    PTSUNNY   76  66  71 SE6       30.22S
FORT EUSTIS    PTSUNNY   74  65  73 SE2       30.21R
WILLIAMSBURG*  MOSUNNY   75  70  83 CALM      30.24R
FRANKLIN*      PTSUNNY   72  66  83 CALM      30.23R
WAKEFIELD      CLOUDY    72  66  81 CALM      30.23S
$$

VAZ020-022-025-037-045-301300-
WESTERN AND SOUTHWEST VIRGINIA

CITY           SKY/WX    TMP DP  RH WIND       PRES   REMARKS
STAUNTON*      CLOUDY    69  63  80 S5        30.25R
HOT SPRINGS VA PTSUNNY   62  62 100 S8        30.36R FOG
LYNCHBURG      CLOUDY    70  68  93 S6        30.25S
DANVILLE       CLOUDY    72  70  93 E3        30.23S
MARTINSVILLE   CLOUDY    72  72 100 CALM      30.26S FOG
ROANOKE        CLOUDY    71  68  90 W3        30.27R
BLACKSBURG     MOSUNNY   70  70 100 SE3       30.30S FOG
DUBLIN*        DRIZZLE   68  68 100 CALM      30.29S
MARION*        PTSUNNY  N/A N/A N/A CALM      30.31S FOG
HILLSVILLE*    CLOUDY    67  67  99 CALM      30.30R FOG
RICHLANDS*     SUNNY     72  66  81 SE5       30.26S
WISE*          SUNNY     70  66  88 S3        30.27S
ABINGDON*      SUNNY     69  67  94 CALM      30.25R FOG
$$

MDZ021>025-VAZ099-100-301300-
SOUTHERN MARYLAND AND THE DELMARVA PENINSULA

CITY           SKY/WX    TMP DP  RH WIND       PRES   REMARKS
PATUXENT RIVER PTSUNNY   73  62  68 S6        30.23S
BAY BRIDGE APT   N/A     70  61  73 SE6       30.24S
LEONARDTOWN    CLOUDY    70  61  73 CALM      30.25S
DOVER          PTSUNNY   64  64 100 NE1       30.24R
GEORGETOWN     CLOUDY    66  61  84 MISG      30.26S
EASTON         CLOUDY    66  66 100 CALM      30.28S
CAMBRIDGE      CLOUDY    64  61  88 SE3       30.24S
SALISBURY      CLOUDY    66  60  81 CALM      30.25R
OCEAN CITY     SUNNY     73  63  70 SE5       30.24S
WALLOPS ISLAND SUNNY     72  65  78 CALM      30.25S
ACCOMACK*      NOT AVBL
$$

NCZ012>017-030>032-301300-
EASTERN NORTH CAROLINA

CITY           SKY/WX    TMP DP  RH WIND       PRES   REMARKS
ELIZABETH CITY PTSUNNY   75  69  81 E5        30.22S
AHOSKIE*       MOSUNNY   70  66  89 CALM      30.23R
EDENTON*       CLOUDY    76  72  87 E6        30.22R
CURRITUCK*     CLOUDY    75  66  73 E5        30.23S
KILL DEVIL HLS CLOUDY    76  70  83 E5        30.21R
MANTEO         CLOUDY    75  71  85 E8        30.22S
CAPE HATTERAS  PTSUNNY   77  77 100 CALM      30.21
GOLDSBORO      MOSUNNY   71  71  98 E1        30.21R
WASHINGTON     MOSUNNY   71  68  92 CALM      30.22R
GREENVILLE     SUNNY     72  70  94 CALM      30.23R
NEW BERN       CLOUDY    76  72  87 CALM      30.23R
WILMINGTON     PTSUNNY   74  72  93 NE5       30.20R
$$

VAZ048-301300-
ELSEWHERE

CITY           SKY/WX    TMP DP  RH WIND       PRES   REMARKS
HARRISBURG PA  CLOUDY    64  60  87 E6        30.23S
BALTIMORE      PTSUNNY   69  62  78 E3        30.24S
ANNAPOLIS      CLOUDY    72  63  73 SE9       30.24S
ANDREWS AFB    CLOUDY    67  63  87 SE6       30.24S
WILMINGTON DE  PTSUNNY   66  61  84 E5        30.26F
PHILADELPHIA   PTSUNNY   66  59  78 E3        30.27R
WILDWOOD NJ*   SUNNY     66  61  82 CALM      30.27R
ATLANTIC CITY  SUNNY     63  60  90 CALM      30.26S
HENDERSON NC   PTSUNNY   70  66  88 CALM      30.24S
GREENSBORO     PTSUNNY   73  72  94 SE3       30.22S FOG
ROCKY MOUNT    PTSUNNY   71  68  90 CALM      30.23R
FAYETTEVILLE   CLOUDY    73  72  96 CALM      30.21R FOG
CHARLOTTE      MOSUNNY   74  69  85 E3        30.21R
$$

VAZ100-301300-
MARINE

STATION/POSITION TIME  TEMP    WIND        PRES    WAVE   SWELL
                       AIR SEA DIR/SP/G            HT/PER HT/PER
                 (UTC) (F)     (DEG/KT/KT) (MB)    (FT/S) (FT/S)
44066 TX TWR #4  1200   71 72  140/  8/ 10 1025.1F   3/ 9   2/ 9
CAPE MAY NJ      1200   70 78  140/  3/  3 1023.9R
LEWES DE         1200   70 76  200/  1/  2 1024.1R
15NM E FENWICK I 1200   74 73              1024.1F   2/ 8
OCEAN-CITY-INLET 1200   73 75  140/  4/  6 1023.7R
WACHAPREAGUE VA  1200   73 78  110/  3/  5 1023.9S
THOMAS POINT MD  1200   70 77  130/  8/  9 1024.9R
GOOSES REEF MD   1200   72     140/  8/ 10 1024.1F
COVE POINT MD    1200   71     140/ 10/ 12 1023.5F
SOLOMONS ISLAND  1200      78                N/A
BISHOPS HEAD MD  1200   72 75  130/  7/  9 1023.5S
PINEY POINT MD   1200          170/ 11/ 12   N/A
POTOMAC MD       1200   75     160/ 10/ 12 1023.0S
CAMBRIDGE MD     1200   67 78  110/  4/  5 1023.8R
LEWISETTA VA     1200   73 78  140/  4/  6 1023.3F
RAPPAHANNOCK LGT 1200           90/  8/  9 1024.1S
STINGRAY PT      1200   75     130/ 10/ 12   N/A
YORK RVR RNG VA  1200   76     140/ 11/ 12 1023.0R
YORKTOWN VA      1200   76 80  140/  4/  5 1023.2R
JAMESTOWN VA     1200   74     130/  6/ 10   N/A
DOMINION TERM VA 1200   76     110/  9/ 11 1023.5S
KIPTOPEKE VA     1200      80  120/  7/  9   N/A
CHES BAY BRIDGE  1200   76 78   90/  7/ 11 1023.1S
CAPE HENRY VA    1200   75     100/  9/ 12 1022.5R
CHESAPEAKE LGHT  1100   74      90/ 13/ 14 1023.9R
WILLOUBY STN VA  1200   76     130/  7/  8 1022.2R
S CRANEY ISL VA  1200           80/  4/  6 1023.1F
CAPE HENRY BUOY  1200      76                N/A     2/ 8
1ST LANDING BUOY 1200   76     110/ 10/ 12 1023.2R
CAPE CHARLES BUO 1200      76                N/A     2/ 8   2/ 8
OFFSHORE WE BUOY 1200      76                N/A     3/ 7   2/ 7
64NM E OF VA BCH 1200   76 78   80/ 10/ 12 1023.2R   3/ 8   2/ 8
DUCK PIER NC     1200   76 77  100/ 13/ 14 1022.6R
44056 DUCK FRF   1200                        N/A     3/ 8
OREGON INLET NC  1200   77 78   90/  7/ 10 1023.0R
HATTERAS NC      1200   79 81  110/  3/  5 1023.5R
DIAMOND SHLS NC  1200   80      40/  6/ 10 1022.9R   4/ 7   3/ 7
CAPE LOOKOUT NC  1100   80      40/  6/  6 1022.6R
$$



USA.gov is the U.S. government's official web portal to all federal, state and local government web resources and services.